This is the latest recevied weather packets stored in our database for station/object KD8OZS. If no packets are shown the sender has not sent any weather packets the latest 10 day(s).
| Time | Temp. | Humidity | Pressure | Rain* | Wind** | Luminosity | Snow |
|---|---|---|---|---|---|---|---|
| 1787586399 | 20° C | 68% | 1010.1 hPa | 0 mm | - | 165 W/m² | - |
| 1787586095 | 19.44° C | 73% | 1010.2 hPa | 0 mm | - | 233 W/m² | - |
| 1787585791 | 19.44° C | 68% | 1010 hPa | 0 mm | - | 178 W/m² | - |
| 1787585486 | 19.44° C | 68% | 1010.1 hPa | 0 mm | - | 281 W/m² | - |
| 1787585180 | 19.44° C | 70% | 1010.1 hPa | 0 mm | - | 252 W/m² | - |
| 1787584875 | 18.89° C | 69% | 1010 hPa | 0 mm | - | 200 W/m² | - |
| 1787584574 | 19.44° C | 68% | 1010 hPa | 0 mm | - | 139 W/m² | - |
| 1787584268 | 18.89° C | 72% | 1010.1 hPa | 0 mm | - | 327 W/m² | - |
| 1787583962 | 18.89° C | 68% | 1009.9 hPa | 0 mm | - | 152 W/m² | - |
| 1787583657 | 19.44° C | 69% | 1009.9 hPa | 0 mm | - | 125 W/m² | - |
| 1787583356 | 19.44° C | 68% | 1009.9 hPa | 0 mm | - | 181 W/m² | - |
| 1787583055 | 18.89° C | 68% | 1009.8 hPa | 0 mm | - | 74 W/m² | - |
| 1787582750 | 18.89° C | 68% | 1009.6 hPa | 0 mm | - | 116 W/m² | - |
| 1787582446 | 18.33° C | 71% | 1009.8 hPa | 0 mm | - | 267 W/m² | - |
| 1787582142 | 18.33° C | 69% | 1009.8 hPa | 0 mm | - | 405 W/m² | - |
| 1787581836 | 18.33° C | 67% | 1009.8 hPa | 0 mm | - | 431 W/m² | - |
| 1787581532 | 18.33° C | 69% | 1009.5 hPa | 0 mm | - | 411 W/m² | - |
| 1787581232 | 18.33° C | 69% | 1009.2 hPa | 0 mm | - | 561 W/m² | - |
| 1787580932 | 18.89° C | 68% | 1009.6 hPa | 0 mm | - | 335 W/m² | - |
| 1787580627 | 18.33° C | 68% | 1009.5 hPa | 0 mm | - | 628 W/m² | - |
| 1787580323 | 17.78° C | 71% | 1009.6 hPa | 0 mm | - | 597 W/m² | - |
| 1787580019 | 17.78° C | 75% | 1009.5 hPa | 0 mm | - | 605 W/m² | - |
| 1787579717 | 17.78° C | 76% | 1009.7 hPa | 0 mm | - | 588 W/m² | - |
| 1787579413 | 17.22° C | 74% | 1009.6 hPa | 0 mm | - | 549 W/m² | - |
| 1787579108 | 17.22° C | 74% | 1009.4 hPa | 0 mm | - | 542 W/m² | - |
* Rain latest hour (hover to see other rain measurements)
** Current wind speed in m/s (hover to see current wind gust speed)